Flag for U.S.A. Weather past 2 weeks in Juneau, Alaska, U.S.A.

Now
54 °F

Light rain. Mostly cloudy.


Feels Like: 51 °F
Forecast: 53 / 58 °F
Wind: 12 mph from East

Location: Juneau International Airport

Current Time: Jul 28, 2015 at 12:54:59 AM

Latest Report: Jul 27, 2015 at 11:53 PM


Visibility: 7 mi

Pressure: 29.83 "Hg

Humidity: 97%

Dew point: 53 °F

Location of JuneauLocation

Historic Weather in Juneau — Graph

°F

Juneau temperature yesterday

Maximum temperature yesterday: 56 °F (at 9:53 AM)
Minimum temperature yesterday: 54 °F (at 12:53 AM)
Average temperature yesterday: 55 °F

Past Weeks' High & Low Weather Summary

 TemperatureHumidityPressure
High76 °F (Jul 21, 3:53 PM)100% (Jul 21, 2:53 AM)30.24 "Hg (Jul 21, 2:53 AM)
Low47 °F (Jul 21, 4:53 AM)40% (Jul 21, 3:53 PM)29.57 "Hg (Jul 23, 4:53 PM)
Average56 °F86%29.93 "Hg
* Reported Jul 12 11:53 PM — Jul 27 11:53 PM, Juneau, Weather by CustomWeather, © 2015

Note: Actual official high and low records may vary slightly from our data, if they occured in-between our weather recording intervals... More about our weather records

Advertising

Juneau weather history for previous 24 hours

 ConditionsComfort  
Time TempWeatherWind HumidityBarometerVisibility
11:53 PM
Mon, Jul 27
54 °FLight rain. Mostly cloudy.12 mph97%29.83 "Hg7 mi
10:53 PM55 °FLight rain. Mostly cloudy.15 mph93%29.83 "Hg8 mi
9:53 PM55 °FLight rain. Mostly cloudy.16 mph93%29.82 "Hg8 mi
8:53 PM56 °FMostly cloudy.18 mph90%29.82 "Hg7 mi
7:53 PM56 °FLight rain. Cloudy.20 mph90%29.82 "Hg7 mi
6:53 PM56 °FLight rain. Fog.18 mph93%29.82 "Hg5 mi
5:53 PM56 °FLight rain. Fog.15 mph93%29.84 "Hg6 mi
4:53 PM56 °FLight rain. Mostly cloudy.17 mph93%29.84 "Hg7 mi
3:53 PM56 °FRain. Fog.17 mph93%29.84 "Hg6 mi
2:53 PM56 °FLight rain. Mostly cloudy.15 mph93%29.84 "Hg8 mi
1:53 PM56 °FLight rain. Mostly cloudy.14 mph90%29.84 "Hg10 mi
12:53 PM56 °FLight rain. Mostly cloudy.16 mph90%29.85 "Hg10 mi
11:53 AM56 °FLight rain. Mostly cloudy.14 mph93%29.85 "Hg8 mi
10:53 AM56 °FLight rain. Mostly cloudy.16 mph90%29.85 "Hg8 mi
9:53 AM56 °FLight rain. Mostly cloudy.14 mph90%29.85 "Hg8 mi
8:53 AM55 °FLight rain. Mostly cloudy.10 mph93%29.85 "Hg7 mi
7:53 AM55 °FLight rain. Mostly cloudy.13 mph93%29.85 "Hg7 mi
6:53 AM54 °FLight rain. Mostly cloudy.9 mph97%29.86 "Hg7 mi
5:53 AM54 °FLight rain. Fog.10 mph97%29.87 "Hg4 mi
4:53 AM54 °FLight rain. Fog.10 mph97%29.87 "Hg6 mi
3:53 AM54 °FLight rain. Fog.9 mph97%29.87 "Hg6 mi
2:53 AM54 °FLight rain. Fog.13 mph97%29.88 "Hg6 mi
1:53 AM54 °FLight rain. Fog.12 mph97%29.89 "Hg5 mi
12:53 AM54 °FDrizzle. Mostly cloudy.13 mph97%29.88 "Hg7 mi
Weather by CustomWeather, © 2015

See weather overviewHow to use our weather pages